• In Spain
  • List of Countries
  • For 7 days
  • Water Temperature
  • Satellite Maps
  • Weather Map
  • Weather Widgets
  • user-avatar
    Login

    Hourly Weather Zelenovaha

    Today, 22 April, Sunday

    Time Temperature Precipitation Wind Pressure Humidity
    00:00 +3°C° 0 mm 6 mps 730 mmHg 74%
    01:00 +3°C° 0 mm 5 mps 730 mmHg 76%
    02:00 +3°C° 0 mm 4 mps 730 mmHg 79%
    03:00 +3°C° 0 mm 4 mps 730 mmHg 80%
    04:00 +1°C° 0 mm 4 mps 731 mmHg 81%
    05:00 +1°C° 0 mm 4 mps 731 mmHg 81%
    06:00 +1°C° 0 mm 4 mps 731 mmHg 78%
    07:00 +3°C° 0 mm 4 mps 732 mmHg 74%
    08:00 +3°C° 0 mm 4 mps 732 mmHg 69%
    09:00 +3°C° 0 mm 4 mps 732 mmHg 67%
    10:00 +4°C° 0 mm 4 mps 733 mmHg 64%
    11:00 +4°C° 0 mm 4 mps 733 mmHg 61%
    12:00 +3°C° 0 mm 5 mps 734 mmHg 60%
    13:00 +3°C° 0 mm 5 mps 734 mmHg 59%
    14:00 +3°C° 0 mm 5 mps 735 mmHg 58%
    15:00 +3°C° 0 mm 5 mps 735 mmHg 58%
    16:00 +3°C° 0 mm 4 mps 736 mmHg 58%
    17:00 +3°C° 0 mm 4 mps 736 mmHg 58%
    18:00 +1°C° 0 mm 4 mps 737 mmHg 61%
    19:00 +2°C° 0 mm 3 mps 737 mmHg 64%
    20:00 +1°C° 0 mm 3 mps 738 mmHg 67%
    21:00 +1°C° 0 mm 2 mps 739 mmHg 70%
    22:00 -1°C° 0 mm 2 mps 739 mmHg 73%
    23:00 -1°C° 0 mm 2 mps 740 mmHg 76%

    Tomorrow, 23 April, Monday

    Time Temperature Precipitation Wind Pressure Humidity
    00:00 -2°C° 0 mm 2 mps 740 mmHg 78%
    01:00 -3°C° 0 mm 2 mps 740 mmHg 81%
    02:00 -3°C° 0 mm 2 mps 741 mmHg 83%
    03:00 -3°C° 0 mm 2 mps 741 mmHg 82%
    04:00 -3°C° 0 mm 2 mps 741 mmHg 81%
    05:00 -3°C° 0 mm 2 mps 742 mmHg 81%
    06:00 -2°C° 0 mm 2 mps 742 mmHg 70%
    07:00 +1°C° 0 mm 2 mps 742 mmHg 60%
    08:00 +2°C° 0 mm 2 mps 743 mmHg 50%
    09:00 +4°C° 0 mm 2 mps 743 mmHg 46%
    10:00 +5°C° 0 mm 2 mps 743 mmHg 41%
    11:00 +6°C° 0 mm 2 mps 743 mmHg 37%
    12:00 +7°C° 0 mm 2 mps 742 mmHg 35%
    13:00 +7°C° 0 mm 2 mps 742 mmHg 34%
    14:00 +8°C° 0 mm 2 mps 742 mmHg 33%
    15:00 +8°C° 0 mm 2 mps 742 mmHg 35%
    16:00 +7°C° 0 mm 2 mps 742 mmHg 37%
    17:00 +7°C° 0 mm 2 mps 741 mmHg 38%
    18:00 +6°C° 0 mm 1 mps 742 mmHg 45%
    19:00 +4°C° 0 mm 1 mps 742 mmHg 52%
    20:00 +2°C° 0 mm 0 mps 742 mmHg 59%
    21:00 +2°C° 0 mm 1 mps 742 mmHg 61%
    22:00 +2°C° 0 mm 1 mps 742 mmHg 63%
    23:00 +1°C° 0 mm 1 mps 742 mmHg 65%

    Day after tomorrow, 24 April, Tuesday

    Time Temperature Precipitation Wind Pressure Humidity
    00:00 +1°C° 0 mm 1 mps 741 mmHg 66%
    01:00 +1°C° 0 mm 1 mps 741 mmHg 67%
    02:00 0°C° 0 mm 1 mps 741 mmHg 69%
    03:00 -1°C° 0 mm 2 mps 741 mmHg 68%
    04:00 -1°C° 0 mm 2 mps 741 mmHg 68%
    05:00 -1°C° 0 mm 2 mps 740 mmHg 68%
    06:00 +2°C° 0 mm 2 mps 740 mmHg 62%
    07:00 +4°C° 0 mm 2 mps 740 mmHg 56%
    08:00 +6°C° 0 mm 2 mps 740 mmHg 50%
    09:00 +7°C° 0 mm 3 mps 739 mmHg 48%
    10:00 +8°C° 0 mm 3 mps 739 mmHg 46%
    11:00 +9°C° 0 mm 3 mps 739 mmHg 44%
    12:00 +8°C° 0 mm 4 mps 738 mmHg 45%
    13:00 +10°C° 0 mm 4 mps 738 mmHg 46%
    14:00 +10°C° 0 mm 4 mps 738 mmHg 48%
    15:00 +10°C° 0.1 mm 3 mps 737 mmHg 54%
    16:00 +9°C° 0.1 mm 3 mps 737 mmHg 60%
    17:00 +8°C° 0.1 mm 3 mps 737 mmHg 66%
    18:00 +8°C° 0.3 mm 2 mps 736 mmHg 73%
    19:00 +7°C° 0.3 mm 2 mps 736 mmHg 80%
    20:00 +6°C° 0.3 mm 2 mps 736 mmHg 87%
    21:00 +6°C° 0.1 mm 2 mps 736 mmHg 90%
    22:00 +6°C° 0.1 mm 2 mps 736 mmHg 93%
    23:00 +5°C° 0.1 mm 2 mps 735 mmHg 96%

    25 April, Wednesday

    Time Temperature Precipitation Wind Pressure Humidity
    00:00 +5°C° 0 mm 2 mps 735 mmHg 96%
    01:00 +5°C° 0 mm 2 mps 735 mmHg 97%
    02:00 +5°C° 0 mm 2 mps 735 mmHg 98%
    03:00 +5°C° 0 mm 2 mps 735 mmHg 97%
    04:00 +5°C° 0 mm 2 mps 735 mmHg 97%
    05:00 +5°C° 0 mm 2 mps 734 mmHg 96%
    06:00 +5°C° 0.1 mm 3 mps 734 mmHg 93%
    07:00 +5°C° 0.1 mm 3 mps 734 mmHg 89%
    08:00 +7°C° 0.1 mm 3 mps 734 mmHg 86%
    09:00 +6°C° 0 mm 4 mps 734 mmHg 85%
    10:00 +7°C° 0 mm 4 mps 734 mmHg 85%
    11:00 +7°C° 0 mm 4 mps 733 mmHg 84%
    12:00 +8°C° 0.1 mm 4 mps 733 mmHg 83%
    13:00 +8°C° 0.1 mm 4 mps 733 mmHg 82%
    14:00 +10°C° 0.1 mm 4 mps 732 mmHg 81%
    15:00 +8°C° 0.8 mm 4 mps 732 mmHg 82%
    16:00 +8°C° 0.8 mm 4 mps 732 mmHg 83%
    17:00 +8°C° 0.8 mm 4 mps 731 mmHg 84%
    18:00 +7°C° 0.1 mm 4 mps 731 mmHg 85%
    19:00 +6°C° 0.1 mm 4 mps 732 mmHg 86%
    20:00 +6°C° 0.1 mm 4 mps 732 mmHg 86%
    21:00 +5°C° 0 mm 3 mps 732 mmHg 88%
    22:00 +4°C° 0 mm 3 mps 732 mmHg 90%
    23:00 +3°C° 0 mm 3 mps 733 mmHg 91%

    26 April, Thursday

    Time Temperature Precipitation Wind Pressure Humidity
    00:00 +3°C° 0 mm 3 mps 733 mmHg 92%
    01:00 +3°C° 0 mm 3 mps 733 mmHg 92%
    02:00 +3°C° 0 mm 3 mps 733 mmHg 92%
    03:00 +3°C° 0 mm 3 mps 733 mmHg 91%
    04:00 +3°C° 0 mm 3 mps 733 mmHg 90%
    05:00 +3°C° 0 mm 3 mps 733 mmHg 90%
    06:00 +4°C° 0 mm 3 mps 733 mmHg 87%
    07:00 +5°C° 0 mm 4 mps 733 mmHg 85%
    08:00 +5°C° 0 mm 4 mps 734 mmHg 83%
    09:00 +6°C° 0 mm 4 mps 734 mmHg 81%
    10:00 +6°C° 0 mm 4 mps 734 mmHg 79%
    11:00 +7°C° 0 mm 4 mps 734 mmHg 77%
    12:00 +8°C° 0.1 mm 4 mps 735 mmHg 69%
    13:00 +11°C° 0.1 mm 4 mps 735 mmHg 61%
    14:00 +12°C° 0.1 mm 4 mps 735 mmHg 53%
    15:00 +12°C° 0.1 mm 4 mps 735 mmHg 54%
    16:00 +12°C° 0.1 mm 4 mps 735 mmHg 56%
    17:00 +11°C° 0.1 mm 3 mps 735 mmHg 57%
    18:00 +10°C° 0 mm 3 mps 736 mmHg 64%
    19:00 +8°C° 0 mm 2 mps 736 mmHg 71%
    20:00 +7°C° 0 mm 2 mps 736 mmHg 78%
    21:00 +6°C° 0 mm 2 mps 736 mmHg 80%
    22:00 +6°C° 0 mm 2 mps 737 mmHg 82%
    23:00 +5°C° 0 mm 2 mps 737 mmHg 84%

    27 April, Friday

    Time Temperature Precipitation Wind Pressure Humidity
    00:00 +5°C° 0 mm 2 mps 737 mmHg 85%
    01:00 +6°C° 0 mm 2 mps 736 mmHg 86%
    02:00 +6°C° 0 mm 2 mps 736 mmHg 88%
    03:00 +6°C° 0.4 mm 2 mps 736 mmHg 90%
    04:00 +6°C° 0.4 mm 2 mps 736 mmHg 92%
    05:00 +6°C° 0.4 mm 2 mps 736 mmHg 95%
    06:00 +7°C° 0 mm 2 mps 736 mmHg 91%
    07:00 +8°C° 0 mm 2 mps 736 mmHg 88%
    08:00 +9°C° 0 mm 3 mps 736 mmHg 85%
    09:00 +10°C° 0.1 mm 3 mps 736 mmHg 80%
    10:00 +10°C° 0.1 mm 3 mps 736 mmHg 75%
    11:00 +12°C° 0.1 mm 2 mps 736 mmHg 70%
    12:00 +12°C° 0.3 mm 3 mps 736 mmHg 66%
    13:00 +12°C° 0.3 mm 3 mps 736 mmHg 61%
    14:00 +13°C° 0.3 mm 3 mps 736 mmHg 57%
    15:00 +13°C° 0.2 mm 3 mps 736 mmHg 58%
    16:00 +12°C° 0.2 mm 3 mps 736 mmHg 60%
    17:00 +12°C° 0.2 mm 3 mps 736 mmHg 61%
    18:00 +10°C° 0.1 mm 3 mps 736 mmHg 68%
    19:00 +9°C° 0.1 mm 3 mps 736 mmHg 74%
    20:00 +7°C° 0.1 mm 3 mps 737 mmHg 81%
    21:00 +5°C° 0 mm 3 mps 737 mmHg 83%
    22:00 +5°C° 0 mm 3 mps 738 mmHg 85%
    23:00 +4°C° 0 mm 3 mps 738 mmHg 86%
    Show more